WUK545 BKPR-EGGW

Flight info

Callsign WUK545
Flight time N/A
Altitude 36000
Route KUKAD1A KUKAD DCT RETRA DCT SIMBA DCT MAMOR L610 INBED DCT BOMBI DCT ADKUV DCT BUB DCT KOZUF DCT IMPOH DCT SASKI L608 SUMUM Y6 TOSVA TOSVA1N
Aircraft A21N/M-SDE1E2E3FGIJ1J4RWXY/LB1

Departure

Time 2026-05-05 20:27
Airport Priština Adem Jashari International Airport (BKPR)

Arrival

Time N/A
Airport London Luton Airport (EGGW)
Time Latitude Longitude Altitude Speed Heading
2026-05-05 20:09 42.57491 21.03115 1792 ft 0 kts 264°
2026-05-05 20:20 42.57492 21.03107 1792 ft 3 kts 291°
2026-05-05 20:20 42.57518 21.03121 1791 ft 6 kts 62°
2026-05-05 20:20 42.57541 21.03178 1792 ft 8 kts 61°
2026-05-05 20:21 42.57585 21.03239 1792 ft 10 kts 58°
2026-05-05 20:21 42.57594 21.03266 1792 ft 0 kts 92°
2026-05-05 20:21 42.57608 21.03286 1792 ft 8 kts 31°
2026-05-05 20:22 42.57693 21.03299 1792 ft 15 kts 354°
2026-05-05 20:22 42.57802 21.03286 1792 ft 17 kts 357°
2026-05-05 20:22 42.57870 21.03280 1792 ft 17 kts 355°
2026-05-05 20:22 42.57940 21.03271 1793 ft 18 kts 354°
2026-05-05 20:23 42.58072 21.03259 1796 ft 20 kts 354°
2026-05-05 20:23 42.58211 21.03246 1798 ft 21 kts 357°
2026-05-05 20:23 42.58336 21.03231 1801 ft 15 kts 360°
2026-05-05 20:23 42.58368 21.03234 1801 ft 0 kts 11°
2026-05-05 20:24 42.58369 21.03235 1801 ft 1 kts 11°
2026-05-05 20:24 42.58395 21.03251 1799 ft 7 kts 34°
2026-05-05 20:24 42.58435 21.03332 1802 ft 14 kts 59°
2026-05-05 20:24 42.58449 21.03458 1804 ft 16 kts 142°
2026-05-05 20:25 42.58413 21.03475 1804 ft 0 kts 179°
2026-05-05 20:26 42.58412 21.03475 1806 ft 1 kts 179°
2026-05-05 20:26 42.58273 21.03490 1801 ft 51 kts 174°
2026-05-05 20:26 42.57686 21.03554 1790 ft 115 kts 177°
2026-05-05 20:27 42.56747 21.03642 1788 ft 151 kts 177°
2026-05-05 20:27 42.55664 21.03766 2148 ft 152 kts 173°
2026-05-05 20:27 42.54635 21.04013 2569 ft 153 kts 172°
2026-05-05 20:27 42.53562 21.04256 2912 ft 159 kts 176°
2026-05-05 20:28 42.52420 21.04172 3171 ft 172 kts 185°
2026-05-05 20:28 42.51172 21.04210 3553 ft 186 kts 182°
2026-05-05 20:28 42.49881 21.03828 3942 ft 198 kts 208°
2026-05-05 20:28 42.48893 21.02514 4328 ft 211 kts 240°
2026-05-05 20:29 42.48428 21.00545 4710 ft 231 kts 256°
2026-05-05 20:29 42.48073 20.98316 5189 ft 245 kts 257°
2026-05-05 20:29 42.47701 20.96063 5862 ft 252 kts 257°
2026-05-05 20:29 42.47305 20.93730 6541 ft 256 kts 257°
2026-05-05 20:30 42.46894 20.91354 7260 ft 260 kts 256°
2026-05-05 20:30 42.46475 20.88958 7980 ft 263 kts 256°
2026-05-05 20:30 42.46052 20.86530 8657 ft 267 kts 257°
2026-05-05 20:30 42.45621 20.84074 9327 ft 270 kts 256°
2026-05-05 20:31 42.45183 20.81589 9994 ft 272 kts 256°
2026-05-05 20:31 42.44769 20.79019 10394 ft 288 kts 258°
2026-05-05 20:31 42.44354 20.76278 10661 ft 307 kts 258°
2026-05-05 20:31 42.43911 20.73360 10927 ft 326 kts 258°
2026-05-05 20:32 42.43441 20.70297 11337 ft 337 kts 258°
2026-05-05 20:32 42.42956 20.67169 11997 ft 341 kts 258°
2026-05-05 20:32 42.42468 20.64027 12695 ft 343 kts 258°
2026-05-05 20:32 42.41974 20.60861 13372 ft 345 kts 258°
2026-05-05 20:33 42.41476 20.57667 14040 ft 347 kts 259°
2026-05-05 20:33 42.40975 20.54458 14693 ft 350 kts 259°
2026-05-05 20:33 42.40467 20.51229 15340 ft 352 kts 259°
2026-05-05 20:33 42.39955 20.47972 15970 ft 355 kts 259°
2026-05-05 20:34 42.39440 20.44694 16604 ft 357 kts 259°
2026-05-05 20:34 42.38919 20.41396 17214 ft 360 kts 259°
2026-05-05 20:34 42.38394 20.38077 17810 ft 362 kts 259°
2026-05-05 20:34 42.37864 20.34744 18390 ft 364 kts 259°
2026-05-05 20:35 42.37328 20.31382 18945 ft 367 kts 259°
2026-05-05 20:35 42.36790 20.28002 19490 ft 369 kts 259°
2026-05-05 20:35 42.36248 20.24594 20020 ft 372 kts 260°
2026-05-05 20:35 42.35700 20.21167 20546 ft 374 kts 260°
2026-05-05 20:36 42.35158 20.17721 21020 ft 377 kts 261°
2026-05-05 20:36 42.34653 20.14235 21504 ft 379 kts 261°
2026-05-05 20:36 42.34153 20.10722 21985 ft 382 kts 261°
2026-05-05 20:36 42.33649 20.07194 22454 ft 384 kts 261°
2026-05-05 20:37 42.33140 20.03637 22909 ft 386 kts 262°
2026-05-05 20:37 42.32802 20.01280 23211 ft 387 kts 261°
2026-05-05 20:37 42.32110 19.96480 23770 ft 391 kts 261°
2026-05-05 20:37 42.31586 19.92864 24179 ft 393 kts 262°
2026-05-05 20:38 42.31058 19.89229 24562 ft 396 kts 261°
2026-05-05 20:38 42.30528 19.85574 24961 ft 397 kts 262°
2026-05-05 20:38 42.29993 19.81899 25366 ft 399 kts 261°
2026-05-05 20:38 42.29456 19.78222 25776 ft 400 kts 261°
2026-05-05 20:39 42.28914 19.74531 26160 ft 401 kts 261°
2026-05-05 20:39 42.28371 19.70823 26527 ft 403 kts 261°
2026-05-05 20:39 42.27825 19.67097 26888 ft 405 kts 261°